CZ-4B DEB, 40530

Orbit data source: Space-Track

CZ-4B DEB, 40530 is space debris in LEO originally from a launch on Fri, 25 Oct 2013 UTC launched from the Jiuquan Satellite Launch Center, China (JSC). Debris objects in space refer to the collection of defunct objects orbiting the Earth. Examples of debris include non-operational satellites, rocket bodies, and fragments generated from explosions, collisions, or faulty payload assembly.

Loading next visibility...
Identifier
40530, 2013-057C
Orbit
LEO
Country
Flag of CNCN / PRC
Related business
Manufacturer
SAST
Mission
Spacecraft
Bus & Motor
Unknown
Mass
Unknown
Launch date (UTC)
2013-10-25 (12 years ago)
Launch vehicle
Unknown
Launch site
Jiuquan Satellite Launch Center, China (JSC)
Object type
Payload
Rocket body
Debris
Shape & HBR
Unknown shape, 0.1 m
Radar Cross Section
Small (<0.1 m²)

Expand to show TLE details & history
Last TLE update: 11 hours ago

TLE from 11 hours ago
0 CZ-4B DEB
1 40530U 13057C   26105.41445373  .00001491  00000-0  25875-3 0  9998
2 40530  75.0533   9.2749 0172863 297.5908  60.7798 14.59637443583217
Epoch: 2026-04-15T09:56Z
TLE epoch observation values (Epoch: 2026-04-15T09:56:48.802Z)
Latitude
-0.00001°
Longitude
16.49487°
Altitude
638.981 km
Speed
7.57 km/s
True Right ascension
00h 37m 05s
True Declination
0° 00' 00"
Sunlit
Object was in daylight at epoch
Visualization orbit readout
Latitude
Unknown
Longitude
Unknown
Altitude
Unknown
Speed
Unknown
Apparent Right ascension
Unknown
Apparent Declination
Unknown
Sunlit
N/A
Visualization observer readout
Local Sidereal Time
03:24:58
Azimuth
Unknown
Elevation
Unknown
Doppler factor
Unknown
Orbital elements
Apogee altitude
814.071 km
Perigee altitude
569.643 km
Semi-major axis
7,069.994 km
Eccentricity
0.01729
Inclination
75.0533°
RAAN
9.2749°
Arg. of periapsis
297.5908°
True anomaly
62.52675°
Mean anomaly
60.7798°
Eccentric anomaly
61.65145°
Mean motion
3.65102 °/min
Orbital period
98.6 mins
BSTAR
0.00025875
Loading maneuver chart data...
Computing Atmospheric mass density...
Loading historical data...
Loading historical data...
Loading historical data...
Loading historical data...
Loading historical data...
Loading historical data...
Loading historical data...
Other satellites on launch #57 in the year 2013 (2013-10-25 UTC)

Documentation

Showing up to 5 results
|